Theta_e
319 315 316 319 321 326 344 342 343 349 350 348 346 344 341 338 339 341 342 345 341 341 343 343 342 342 342 342 343 344 344 340 340 345 344 343 341 342 344 340 341 339 340 340
315 315 316 319 328 340 343 346 349 342 346 344 343 345 342 338 338 340 341 344 344 344 343 343 343 342 343 341 342 345 344 342 339 344 344 343 344 343 340 341 342 341 344 342
315 317 319 319 324 345 345 345 347 340 346 344 346 346 344 340 338 338 338 342 345 345 341 344 343 343 343 343 342 344 344 343 340 339 344 345 345 346 345 345 345 346 343 345
317 319 321 324 330 342 343 339 342 340 345 349 346 349 347 343 343 341 341 340 345 345 344 345 344 344 344 345 343 343 343 343 341 344 343 344 344 343 342 345 343 342 342 347
321 325 326 326 327 327 326 339 339 346 345 345 350 349 342 344 345 343 342 341 343 344 344 344 346 346 345 345 343 342 342 343 341 342 344 345 346 346 343 344 345 341 341 344
322 324 325 324 325 326 326 332 334 337 334 332 338 348 339 346 341 339 340 340 342 342 344 345 345 345 345 345 343 343 342 343 342 341 345 344 345 344 344 346 347 345 343 344
321 322 323 324 322 321 320 318 321 325 335 337 334 338 336 343 342 340 338 340 341 341 342 343 344 345 346 346 345 344 343 343 343 342 343 343 344 345 343 345 345 346 346 341
323 327 321 323 321 321 323 318 319 330 337 335 335 338 341 342 339 341 340 341 341 340 340 343 342 345 346 346 346 346 344 344 344 342 345 344 344 344 344 344 345 346 346 345
323 325 323 322 322 320 323 324 320 331 334 336 339 339 339 341 341 338 339 340 340 341 341 342 343 342 344 347 347 346 346 345 344 339 340 344 342 343 346 345 344 345 349 347
324 324 325 326 326 324 324 323 325 327 336 342 339 343 343 343 344 341 335 337 342 342 341 340 342 341 343 343 345 347 347 346 346 342 337 340 344 341 345 346 348 347 348 348
324 322 324 324 323 324 323 326 328 328 330 336 339 342 337 339 339 337 336 340 340 342 342 340 342 341 342 344 345 347 346 346 347 346 341 338 341 342 345 347 349 346 345 346
324 319 323 325 323 326 327 326 325 329 334 334 336 336 336 338 338 337 340 340 342 344 342 341 340 341 341 344 345 346 347 346 347 347 345 341 337 339 342 343 346 348 344 344
323 320 318 317 318 320 326 326 325 325 327 333 332 331 334 336 337 340 340 341 340 339 343 345 343 344 343 344 345 347 347 344 346 348 347 344 342 340 338 341 344 343 346 345
322 315 317 315 318 320 321 321 323 327 330 331 329 331 334 334 336 338 340 337 336 337 337 338 345 345 345 345 345 346 346 345 347 347 348 346 344 342 341 340 339 339 343 345
313 314 318 320 320 322 322 321 321 320 323 332 327 330 333 334 333 339 338 335 332 337 336 336 336 346 345 345 345 345 343 343 347 347 349 346 345 347 344 344 340 340 342 343
316 318 323 323 322 322 323 321 321 323 325 327 336 339 338 336 336 336 336 333 331 336 338 341 340 345 347 344 344 343 343 345 348 349 349 345 346 348 349 346 346 348 349 349
321 320 319 323 321 321 321 324 324 329 332 331 332 334 334 334 335 332 330 330 330 334 341 345 343 339 345 348 345 343 346 345 347 347 348 348 348 349 350 349 349 349 350 349
318 318 317 319 319 323 320 327 331 335 335 335 335 334 332 333 333 331 331 333 337 340 344 344 343 341 341 345 347 348 347 345 348 346 346 349 350 349 351 348 349 350 349 349
317 316 319 320 320 321 325 328 328 333 336 335 337 337 337 334 333 331 331 337 341 342 342 341 341 342 343 345 345 346 344 345 342 343 346 346 350 349 351 351 349 347 350 349
317 314 317 320 325 325 325 328 329 327 337 334 333 332 332 336 336 331 340 341 341 340 340 339 342 345 346 345 343 343 343 343 344 341 339 342 348 349 347 350 346 345 345 345
319 320 321 322 323 322 329 329 329 328 325 333 333 331 331 330 330 328 333 339 340 339 339 340 341 345 346 348 345 345 343 344 344 344 339 340 344 346 347 345 344 345 345 345
322 322 322 322 326 329 328 328 328 327 329 331 334 333 332 332 332 333 336 339 338 338 338 341 340 344 348 348 347 346 346 344 344 341 343 343 340 345 346 345 345 344 344 344
324 322 322 320 323 324 327 326 328 328 326 329 329 328 334 332 331 338 338 335 336 337 338 339 341 342 347 347 346 346 341 340 337 337 337 336 339 341 343 343 340 341 341 340
325 325 323 323 325 325 328 331 329 328 330 329 331 333 334 334 336 332 334 335 335 336 341 339 340 342 343 344 343 343 338 335 337 337 335 334 335 338 338 337 338 337 337 337
323 325 323 322 324 327 327 331 330 332 331 329 331 333 332 335 335 334 334 333 333 332 338 337 339 342 342 343 345 342 339 337 336 336 331 331 333 336 336 336 335 334 334 333
326 323 324 325 325 324 327 330 329 329 329 331 330 331 329 331 331 333 334 332 332 332 334 336 337 339 340 344 342 343 343 340 338 337 336 336 337 337 336 335 334 334 334 334
Wind_Speed
2 4 6 11 6 6 7 6 6 2 5 1 3 5 10 8 12 11 7 8 12 17 26 23 27 32 27 22 24 22 20 16 26 21 17 18 15 10 12 7 9 8 5 12
5 6 13 7 4 10 10 9 4 2 3 2 3 9 8 6 7 13 10 11 14 15 18 10 22 33 30 29 26 24 22 18 21 22 21 15 15 11 14 11 10 9 6 9
6 11 9 6 5 7 3 8 5 6 5 1 4 7 7 4 14 13 18 16 18 17 22 19 37 35 31 25 25 25 22 19 18 19 21 20 16 16 19 15 14 9 9 6
7 15 12 6 5 13 7 11 16 15 5 3 11 4 5 5 6 10 11 20 23 22 24 27 35 36 32 25 23 24 24 20 19 24 24 20 18 17 15 12 13 11 12 6
7 6 4 4 3 7 9 14 19 15 5 4 9 3 6 5 7 12 19 21 24 24 23 30 31 34 31 28 23 23 23 23 23 26 24 22 18 15 15 14 12 11 12 8
6 2 2 5 2 2 2 7 6 5 3 2 5 8 6 2 12 0 17 26 20 26 24 26 32 34 28 29 29 26 23 24 24 26 24 24 19 19 16 19 16 12 8 10
7 6 3 1 5 8 8 7 4 4 4 5 5 2 5 8 12 11 12 23 28 30 30 32 30 30 29 31 31 29 27 26 26 30 27 24 22 22 18 18 19 18 11 11
1 7 8 4 6 7 2 7 6 5 3 4 5 3 4 4 20 24 4 24 31 30 33 33 32 31 29 33 30 30 29 27 27 32 30 25 25 25 21 15 16 17 14 12
4 8 6 4 4 8 2 0 5 7 2 3 5 5 3 6 6 14 22 4 23 29 32 33 35 29 31 28 28 30 29 28 26 26 32 29 26 27 21 17 18 17 13 15
1 3 1 6 2 3 6 3 3 4 3 2 3 4 4 3 6 4 7 6 5 16 30 29 36 33 28 31 30 29 29 29 28 25 26 31 28 26 23 24 21 20 16 13
2 4 8 5 5 4 4 2 7 6 3 4 1 5 3 5 4 8 9 9 12 16 21 29 32 35 35 31 31 32 31 29 31 27 25 28 30 28 28 24 22 19 18 16
3 5 2 6 7 5 4 4 5 5 3 1 3 5 6 6 9 9 9 12 16 13 15 27 32 33 35 34 37 36 36 33 33 31 27 28 29 29 29 31 26 19 20 18
0 2 3 9 8 8 5 6 5 6 3 5 5 4 5 7 6 9 12 7 8 10 6 14 28 31 38 37 37 44 39 37 33 33 31 29 30 30 31 33 29 25 22 20
7 2 6 5 6 4 6 8 3 5 3 4 6 4 7 7 5 4 1 3 3 8 8 12 11 31 34 39 39 44 43 40 35 31 33 30 31 29 29 29 31 30 26 21
5 4 4 6 5 4 2 7 10 3 5 6 8 8 5 7 6 10 12 8 8 5 5 8 11 17 32 40 46 45 44 41 35 33 34 31 30 25 24 23 24 25 24 24
3 2 1 5 7 8 4 8 6 9 6 5 9 2 4 6 13 17 22 19 9 7 5 3 5 12 18 35 38 45 44 41 36 34 32 28 27 26 24 23 25 24 23 22
4 4 3 2 4 6 5 6 3 4 2 4 3 3 4 2 10 13 9 12 16 6 2 5 5 12 12 17 32 44 44 39 36 33 30 28 26 25 26 24 24 25 24 22
6 5 3 3 4 1 7 5 12 13 7 9 9 8 12 15 20 13 13 12 14 11 12 11 10 9 12 13 11 30 38 38 39 39 34 32 29 25 27 27 27 26 26 24
4 5 3 4 3 4 5 4 3 5 5 2 5 6 5 7 11 18 16 14 17 14 15 14 11 10 9 13 16 16 28 34 22 24 33 29 31 32 31 30 27 25 24 25
6 6 5 2 4 4 6 4 4 11 1 4 4 4 6 9 2 6 14 14 14 13 14 11 9 7 9 10 15 19 17 21 29 32 29 35 31 35 34 33 28 27 26 25
3 4 6 3 3 5 5 6 2 4 6 17 15 14 13 6 14 6 6 9 9 12 12 9 8 7 7 8 10 18 20 24 30 29 24 23 27 32 37 33 31 27 24 23
6 6 3 3 2 4 6 2 5 5 9 16 18 19 23 20 14 13 6 8 10 10 10 6 7 6 6 4 8 16 17 16 16 17 33 35 37 29 39 34 26 21 22 20
1 6 5 6 6 7 5 4 2 9 5 10 10 9 16 15 13 10 7 8 10 11 6 5 4 5 6 4 5 8 20 20 14 12 13 10 14 10 10 8 11 9 11 13
1 3 4 4 4 5 12 17 14 11 9 6 3 8 12 10 11 9 8 7 7 5 1 3 4 6 7 7 6 15 21 21 16 14 11 9 9 10 7 3 5 14 15 14
4 3 4 1 5 4 10 18 13 12 9 6 2 8 10 10 12 10 8 7 6 4 4 3 3 4 6 7 10 12 14 16 20 21 16 12 13 9 7 11 12 12 12 11
6 6 4 4 4 6 7 16 11 8 4 2 3 5 6 8 11 11 7 1 1 3 6 6 6 4 10 13 9 8 9 12 17 17 16 10 9 14 16 12 12 13 11 10
Wind_Direction
231 83 218 229 178 223 153 121 144 66 174 95 206 262 244 148 195 165 152 136 177 191 167 182 191 184 174 169 167 165 165 166 184 171 159 159 158 173 164 159 162 171 147 158
4 229 241 235 153 139 144 133 118 94 254 42 41 281 264 229 188 201 198 181 173 176 178 187 186 177 177 171 176 179 171 167 181 180 176 168 165 170 175 179 189 180 162 164
177 243 219 201 205 144 130 156 166 139 148 43 48 298 277 217 230 221 216 208 192 176 182 182 177 176 176 179 180 180 179 176 179 184 177 173 176 168 171 184 196 183 185 166
212 261 246 198 142 136 171 210 150 157 141 196 151 263 261 241 225 196 193 214 210 188 179 170 178 177 181 190 190 190 184 184 184 177 174 181 178 183 182 177 183 196 190 169
260 349 71 83 235 158 212 164 168 182 159 100 189 351 263 163 245 234 202 213 217 204 190 186 179 184 185 191 196 197 199 190 193 189 187 185 191 190 197 178 172 181 193 183
233 248 204 210 266 248 113 106 143 165 99 100 230 174 280 200 251 269 200 210 208 219 201 188 187 184 190 195 198 203 203 200 200 204 197 192 192 196 189 187 186 196 200 193
333 279 271 147 34 352 61 61 3 356 10 223 258 159 227 349 299 238 198 197 201 210 209 192 191 190 197 200 205 208 207 203 206 205 204 198 200 198 192 200 194 193 200 203
110 323 147 225 170 181 132 142 158 192 195 253 303 332 323 344 20 37 345 201 194 203 207 207 204 198 192 206 204 211 211 207 208 208 208 208 207 205 201 200 200 208 209 198
35 335 333 169 177 127 253 300 184 108 349 79 316 312 285 16 18 9 42 102 193 197 203 211 202 203 202 196 207 210 214 209 210 209 209 209 208 210 207 203 195 195 207 211
355 359 232 306 146 224 148 177 39 21 120 210 297 279 234 4 313 316 15 33 309 212 211 216 210 206 206 216 221 213 217 217 211 208 207 210 210 206 201 195 198 200 211 232
115 87 300 22 38 265 331 101 56 108 107 149 196 269 228 157 258 309 352 353 347 241 218 216 211 209 222 223 218 215 216 221 216 213 208 211 214 207 200 199 209 213 216 216
336 123 309 255 280 330 117 137 118 121 229 128 173 270 121 155 234 283 13 14 14 29 237 230 227 229 237 227 219 220 219 222 221 219 216 214 214 212 208 209 215 216 219 219
288 10 20 350 352 1 15 355 80 105 95 184 149 258 179 148 251 236 143 48 10 12 344 264 239 237 238 234 226 216 218 227 218 221 221 218 214 215 213 212 212 219 225 226
113 106 146 177 222 219 328 332 138 123 126 185 216 173 186 206 213 326 59 26 357 4 11 350 278 233 239 232 227 219 220 224 222 220 222 225 216 215 217 219 219 220 224 228
108 171 172 210 240 20 323 332 331 335 185 159 239 190 171 167 182 184 186 215 314 286 11 12 300 255 231 229 224 215 224 224 218 221 220 222 213 215 213 216 217 219 223 228
33 235 119 354 2 23 342 319 355 14 11 57 110 94 238 200 190 190 213 221 264 209 242 308 254 263 248 224 224 216 217 215 217 219 221 219 213 216 218 218 219 218 224 228
127 115 80 287 0 22 2 308 306 111 350 199 153 183 144 242 225 198 249 268 272 326 285 219 267 243 246 220 225 218 208 209 213 215 224 223 222 224 226 224 222 227 229 230
133 116 110 187 42 33 237 277 105 74 55 98 99 134 175 201 202 226 236 265 276 300 299 277 268 262 244 224 220 205 202 207 212 212 217 222 227 229 228 226 224 227 232 235
133 118 92 126 166 284 340 334 0 104 346 335 131 157 183 184 221 262 229 252 279 274 282 284 264 243 238 233 218 217 205 189 199 231 222 220 225 233 228 227 227 228 227 227
83 94 120 120 139 223 233 253 0 118 58 243 161 207 168 153 222 260 206 218 251 284 295 303 283 243 230 217 212 218 224 221 232 241 247 236 231 233 229 222 216 214 218 222
77 37 143 153 182 279 247 273 265 95 221 193 191 199 212 197 234 309 252 255 269 292 306 303 276 258 253 212 216 208 216 222 235 234 239 258 239 274 230 220 216 213 216 222
162 140 185 98 154 254 221 85 144 208 164 184 201 200 210 224 254 268 248 271 287 301 306 328 292 257 258 193 193 179 193 196 211 232 241 237 254 223 200 213 208 203 215 215
119 169 176 161 209 218 202 226 202 178 165 183 194 217 217 214 230 244 262 283 288 292 302 314 318 252 261 197 170 187 179 161 159 189 214 155 186 117 130 162 187 190 213 197
90 137 139 93 289 190 140 102 115 132 115 103 179 217 211 217 214 217 250 272 282 292 332 302 347 240 243 226 144 151 144 138 129 135 143 164 156 119 190 123 153 147 163 146
188 104 132 292 267 132 133 137 134 113 86 52 175 201 235 229 209 226 231 273 298 278 192 235 233 121 217 199 163 170 163 159 150 149 127 110 93 99 116 143 132 123 128 131
192 172 155 199 203 158 158 159 162 141 111 226 191 181 193 214 231 231 207 190 353 269 193 203 220 179 122 143 140 133 154 169 175 172 158 175 179 160 149 148 144 139 147 144